Wind_Speed
86 84 85 82 80 79 75 73 73 73 72 72 71 70 70 71 74 72 70 72 71 73 73 73 74 73 75 76 76 73 73 73 71 70 72 71 71 71 73 72 65 65 65
85 85 85 84 82 79 78 76 75 74 72 74 71 71 70 72 72 72 68 71 72 74 75 75 75 75 75 74 74 72 69 70 69 70 72 70 68 67 64 61 61 59 56
82 83 81 80 80 79 76 74 71 71 73 73 72 69 68 71 72 69 70 71 73 75 76 76 76 75 74 73 75 72 69 71 73 74 71 71 65 60 54 55 56 56 56
83 82 81 78 77 77 75 72 69 70 72 73 70 69 70 71 72 72 73 71 74 74 75 75 73 73 73 74 71 71 70 74 71 68 67 62 56 55 53 50 52 54 57
83 83 81 77 76 77 71 70 69 67 70 72 72 71 73 70 73 71 71 72 69 72 71 70 72 71 72 71 72 74 74 68 64 59 55 55 52 53 53 51 56 56 61
76 78 79 75 73 72 73 73 71 71 72 71 70 69 68 61 67 71 69 68 68 69 69 68 71 71 72 72 72 73 66 60 59 58 54 51 52 53 56 54 57 61 63
75 76 70 69 68 70 71 70 66 69 65 64 62 61 59 61 62 63 61 65 65 64 65 66 66 67 68 70 70 65 66 62 57 56 55 55 50 55 57 56 57 58 60
48 57 61 66 66 61 67 60 52 56 59 56 56 55 55 52 57 59 60 61 61 61 65 63 63 66 66 67 64 66 66 61 62 62 58 55 53 50 52 60 63 64 64
60 56 59 60 56 60 55 50 53 54 45 46 50 50 51 53 55 57 58 56 62 59 58 60 62 63 64 65 68 63 62 63 63 59 56 54 67 63 69 66 71 76 78
34 38 36 36 50 51 50 43 46 39 40 44 50 55 52 55 55 58 53 55 51 56 54 57 61 63 65 66 61 60 66 66 62 68 73 73 70 75 76 79 78 81 83
41 39 31 34 48 51 52 50 41 41 41 41 48 51 54 53 55 52 56 57 52 53 56 57 62 65 60 63 59 55 73 69 70 72 77 81 83 85 87 89 78 74 78
33 38 47 57 51 51 50 45 38 47 50 45 50 53 55 60 56 47 55 60 61 62 63 63 65 58 64 68 72 74 73 76 82 81 86 86 86 89 81 72 73 66 62
35 43 43 46 54 50 48 43 48 51 48 53 55 60 55 54 51 55 52 54 59 57 62 56 62 68 67 72 76 76 83 88 89 90 92 90 79 71 69 68 65 62 62
44 47 44 52 51 53 51 49 51 50 51 51 59 56 58 56 55 60 63 54 60 67 62 67 70 75 75 78 81 87 93 94 92 87 80 72 68 67 67 66 66 67 68
46 47 47 49 51 52 56 51 55 55 58 58 59 62 63 62 59 62 61 65 70 69 74 76 79 79 83 89 90 95 92 83 80 74 69 68 69 70 70 73 74 77 78
47 58 50 46 50 47 51 51 50 55 57 58 57 57 59 61 64 66 65 71 75 80 84 85 87 88 88 82 79 79 75 74 70 68 69 72 74 74 74 76 78 79 80
38 53 54 52 45 50 52 54 56 48 50 58 58 56 54 59 60 61 63 65 69 71 73 78 80 81 82 77 73 75 70 69 72 74 75 77 77 79 79 79 79 80 80
31 45 56 55 53 55 52 48 60 57 55 56 63 65 65 67 71 63 66 67 70 75 79 81 79 77 71 70 69 68 68 71 74 75 77 78 78 78 79 81 82 84 85
35 38 45 54 52 57 60 58 54 63 68 61 57 57 58 65 68 72 74 76 81 79 80 82 76 70 67 65 66 67 69 72 75 76 74 74 77 81 84 85 86 87 89
43 38 31 41 48 55 53 53 56 53 51 60 62 66 72 70 71 73 72 76 78 80 78 72 70 66 61 63 65 69 73 75 73 74 77 81 84 86 86 88 90 91 90
44 41 47 49 54 48 52 60 59 55 54 59 61 63 67 67 68 71 72 73 73 68 67 65 59 60 64 66 70 74 75 73 74 78 83 85 85 86 88 92 93 93 92
43 42 43 43 43 51 61 56 55 55 57 60 63 65 68 69 73 73 71 71 63 60 57 58 61 64 68 71 73 71 70 74 79 83 86 87 88 90 93 95 93 93 95
36 37 43 47 50 52 52 56 53 55 61 58 60 63 66 65 62 62 63 55 53 56 61 63 65 70 72 73 69 71 74 79 83 86 88 90 91 94 97 95 94 97 102
34 37 34 35 39 44 43 47 49 50 53 55 55 53 49 47 48 49 48 50 54 60 62 65 68 73 73 73 73 77 82 86 88 88 90 93 95 99 98 97 99 104 109
33 33 34 35 37 38 40 43 46 47 50 49 49 48 44 42 47 48 52 56 61 63 64 70 73 71 72 75 78 83 85 88 90 91 93 96 100 99 98 102 108 111 113
29 33 36 37 39 41 42 44 45 42 43 44 44 44 46 48 51 52 56 61 63 64 69 73 76 77 76 79 84 87 88 90 92 95 98 101 97 98 103 109 112 112 112
Wind_Direction
247 248 251 252 252 254 257 260 263 265 267 269 270 272 273 272 271 273 276 278 279 278 277 277 278 280 280 280 282 281 281 281 278 277 277 280 281 283 286 285 283 279 281
243 246 249 251 254 256 256 259 261 264 267 268 270 271 271 271 274 275 275 275 275 275 276 277 278 280 280 282 284 283 281 280 282 282 285 286 287 286 286 282 281 274 274
246 246 249 251 253 255 256 258 261 262 264 266 269 270 270 269 269 271 272 273 274 276 277 278 282 282 284 282 283 286 287 290 290 292 292 293 291 292 285 280 277 275 271
247 249 247 249 252 255 256 258 260 262 264 266 266 267 268 267 268 270 271 273 275 276 279 281 282 281 283 284 286 284 286 289 291 291 293 291 290 284 277 272 270 269 270
246 248 249 249 251 254 258 259 260 262 262 262 265 267 268 272 273 273 274 274 275 277 279 278 278 280 281 282 281 284 288 288 290 292 291 290 284 279 276 275 271 272 272
244 246 250 251 254 256 256 257 258 260 263 267 268 269 270 273 273 275 274 273 276 275 276 276 276 276 277 279 283 286 288 297 296 294 298 297 291 283 275 275 274 273 275
246 248 250 252 253 255 257 259 262 264 267 267 268 270 269 269 270 269 269 271 273 274 274 272 275 274 276 278 282 284 288 292 293 293 298 301 294 284 274 279 279 281 274
238 248 249 248 254 256 257 263 264 262 263 265 266 266 268 266 268 268 271 271 271 267 269 271 270 274 277 280 284 293 294 292 300 304 300 301 306 286 282 283 279 282 277
240 244 250 254 254 253 256 253 255 263 264 265 264 268 263 266 264 267 268 267 270 272 271 274 274 275 277 285 293 300 301 301 301 302 306 294 296 292 292 288 289 287 287
237 244 248 259 249 246 245 239 251 257 270 272 272 270 267 270 269 271 271 269 275 274 281 277 272 277 291 303 302 294 300 307 303 298 301 298 296 295 291 291 293 291 292
229 223 215 253 244 250 250 250 247 253 258 274 276 276 272 273 270 269 273 274 273 278 285 287 291 294 300 300 303 298 300 299 298 294 298 300 297 299 297 298 294 292 298
239 234 234 223 240 237 236 239 235 243 248 244 259 265 272 272 275 278 276 278 278 281 289 300 300 300 297 299 294 293 295 294 301 300 300 301 298 297 298 295 295 291 294
221 220 225 215 211 217 217 223 232 240 252 249 258 259 265 267 269 270 284 289 290 289 298 297 297 292 290 292 294 296 297 298 300 299 300 301 301 300 300 300 300 298 296
207 211 207 205 216 216 216 222 227 233 238 246 252 253 264 271 279 279 280 290 288 292 289 291 289 291 290 291 293 297 299 300 300 304 302 301 302 301 299 299 299 295 296
214 207 205 215 215 219 222 224 231 233 238 241 250 257 270 275 279 282 284 283 285 283 286 288 291 292 292 294 294 297 300 302 301 301 302 302 301 300 299 299 297 297 295
209 203 208 211 218 215 219 221 231 236 242 250 257 267 270 273 276 276 278 284 281 282 285 290 289 290 295 298 300 300 301 301 301 299 298 298 298 299 299 297 296 295 294
217 210 213 214 223 217 222 228 229 242 249 249 251 260 265 266 270 272 277 282 283 285 288 291 291 294 297 298 297 299 298 298 298 300 301 301 301 299 298 296 294 293 292
229 225 217 218 224 225 231 235 236 241 249 251 251 256 269 273 271 283 284 288 290 293 297 296 297 296 296 297 296 297 298 299 301 303 303 302 301 298 296 295 295 294 293
220 224 227 228 228 232 231 239 246 246 250 259 264 274 278 278 279 285 289 293 292 293 292 296 297 297 295 296 297 298 301 302 302 300 300 298 298 297 296 296 297 296 294
229 231 230 232 236 236 242 246 250 257 266 263 271 276 276 279 279 286 292 295 294 292 292 293 295 295 297 298 302 302 300 300 298 297 298 299 299 298 298 298 298 296 293
239 234 240 243 239 251 249 251 254 262 269 271 278 281 283 285 286 289 291 293 291 292 292 293 294 297 301 302 298 296 299 301 299 299 300 300 300 300 299 299 298 296 294
245 249 254 258 259 255 257 259 265 268 273 274 274 278 284 285 287 286 289 288 290 290 293 295 298 300 300 299 301 302 303 302 303 302 302 302 301 300 301 300 298 296 295
242 249 250 254 255 259 255 263 269 268 264 271 279 283 284 285 283 285 287 288 292 297 299 301 301 300 301 302 302 300 300 302 304 304 303 302 302 302 302 300 298 297 296
253 255 255 257 258 259 264 267 273 274 279 284 285 283 281 282 284 285 289 296 297 299 300 299 301 302 303 302 302 302 304 306 304 304 304 304 304 304 302 301 299 298 297
274 274 274 275 276 275 277 279 279 280 286 284 282 280 281 288 292 293 298 297 300 299 299 301 303 304 303 303 304 306 306 305 305 306 307 306 305 304 302 302 301 299 298
276 278 278 277 277 277 279 278 280 281 280 280 280 283 286 288 292 296 297 298 299 298 300 303 306 307 307 307 306 306 306 306 306 306 306 306 305 304 303 302 300 298 298
Height
10817 10824 10826 10834 10840 10844 10849 10852 10854 10855 10857 10857 10860 10860 10858 10855 10853 10852 10852 10849 10848 10846 10844 10843 10843 10843 10842 10841 10839 10835 10832 10829 10828 10825 10823 10823 10819 10817 10815 10812 10811 10810 10809
10804 10810 10814 10820 10826 10832 10838 10842 10844 10846 10847 10846 10848 10847 10846 10843 10841 10839 10839 10837 10835 10834 10833 10832 10832 10832 10830 10828 10825 10822 10819 10814 10813 10812 10810 10809 10808 10805 10802 10799 10797 10797 10796
10795 10799 10805 10809 10814 10819 10826 10831 10834 10836 10835 10835 10834 10836 10836 10832 10828 10826 10826 10825 10823 10821 10822 10822 10821 10819 10817 10813 10810 10808 10805 10804 10800 10798 10795 10795 10793 10791 10789 10788 10786 10784 10784
10780 10785 10793 10800 10804 10808 10813 10819 10824 10824 10823 10820 10822 10824 10821 10819 10816 10816 10814 10813 10812 10811 10811 10810 10808 10805 10802 10799 10798 10796 10795 10793 10791 10788 10785 10783 10781 10779 10777 10776 10775 10773 10771
10765 10772 10778 10787 10792 10796 10804 10807 10810 10811 10806 10806 10809 10809 10808 10808 10805 10805 10803 10802 10801 10800 10801 10800 10795 10793 10790 10788 10786 10785 10783 10784 10781 10779 10776 10773 10770 10767 10767 10765 10763 10761 10760
10752 10760 10766 10777 10781 10784 10789 10792 10796 10797 10794 10795 10794 10795 10797 10793 10791 10793 10793 10792 10790 10790 10787 10787 10785 10783 10780 10776 10776 10773 10772 10771 10769 10768 10766 10763 10761 10758 10756 10754 10753 10750 10748
10744 10748 10759 10764 10767 10771 10773 10782 10785 10784 10784 10782 10781 10782 10782 10781 10782 10781 10781 10781 10781 10780 10777 10775 10774 10770 10768 10766 10762 10763 10763 10761 10758 10756 10754 10751 10749 10747 10744 10744 10742 10739 10737
10736 10740 10745 10750 10754 10760 10763 10771 10773 10771 10771 10770 10769 10769 10769 10769 10769 10770 10772 10769 10770 10768 10766 10765 10763 10758 10757 10755 10753 10751 10751 10748 10744 10741 10739 10737 10735 10734 10733 10731 10728 10724 10720
10728 10735 10739 10744 10746 10753 10756 10760 10760 10761 10762 10760 10759 10759 10758 10759 10759 10758 10762 10761 10756 10756 10756 10754 10752 10747 10747 10747 10744 10737 10736 10733 10731 10730 10724 10725 10724 10720 10718 10716 10712 10709 10705
10721 10728 10734 10740 10739 10743 10743 10750 10752 10754 10752 10750 10749 10749 10750 10748 10747 10748 10748 10750 10749 10744 10745 10743 10741 10739 10735 10732 10730 10727 10724 10719 10716 10717 10713 10710 10705 10704 10703 10699 10694 10688 10683
10710 10716 10728 10730 10726 10732 10737 10742 10743 10746 10746 10745 10739 10738 10739 10738 10737 10738 10738 10736 10738 10734 10732 10731 10729 10726 10722 10719 10717 10714 10713 10708 10705 10703 10699 10696 10688 10681 10680 10677 10670 10667 10662
10698 10703 10708 10718 10720 10725 10728 10731 10733 10734 10735 10735 10732 10729 10728 10729 10727 10730 10727 10726 10726 10724 10722 10718 10715 10713 10708 10706 10705 10701 10698 10693 10689 10685 10681 10676 10673 10664 10658 10653 10649 10643 10640
10690 10693 10698 10707 10712 10712 10715 10719 10723 10724 10724 10726 10724 10722 10721 10720 10721 10718 10720 10717 10714 10712 10709 10708 10706 10702 10699 10695 10690 10686 10680 10674 10670 10665 10659 10655 10650 10645 10638 10636 10631 10626 10623
10683 10688 10695 10700 10701 10706 10708 10709 10711 10713 10715 10716 10715 10714 10715 10714 10713 10713 10711 10710 10705 10704 10699 10698 10695 10692 10687 10681 10676 10669 10664 10657 10651 10646 10640 10635 10630 10625 10622 10618 10613 10608 10604
10680 10682 10686 10691 10694 10699 10701 10703 10704 10706 10707 10708 10707 10707 10709 10708 10707 10705 10702 10700 10699 10693 10687 10686 10681 10677 10674 10669 10662 10656 10648 10642 10637 10631 10626 10621 10616 10611 10607 10602 10597 10591 10587
10669 10675 10681 10685 10690 10693 10696 10697 10699 10702 10704 10703 10704 10704 10703 10702 10697 10695 10691 10687 10685 10682 10677 10672 10669 10666 10662 10655 10648 10642 10636 10629 10622 10618 10612 10609 10603 10597 10592 10588 10581 10575 10568
10665 10672 10677 10682 10687 10689 10690 10692 10693 10694 10696 10695 10696 10694 10693 10689 10687 10682 10679 10677 10672 10668 10664 10660 10656 10654 10647 10642 10637 10632 10624 10616 10609 10602 10596 10590 10583 10578 10574 10570 10564 10558 10551
10663 10666 10670 10675 10677 10682 10683 10684 10686 10685 10686 10686 10685 10684 10682 10678 10676 10671 10669 10665 10660 10653 10648 10648 10644 10640 10635 10630 10624 10617 10610 10602 10595 10587 10578 10571 10565 10560 10555 10550 10544 10539 10532
10658 10660 10664 10668 10672 10674 10676 10677 10678 10678 10679 10679 10677 10675 10671 10669 10665 10662 10658 10653 10645 10641 10638 10636 10632 10627 10620 10614 10610 10603 10595 10587 10580 10572 10565 10558 10552 10544 10537 10530 10523 10516 10509
10654 10657 10659 10661 10663 10666 10668 10669 10670 10670 10669 10669 10666 10664 10660 10658 10655 10651 10645 10638 10632 10629 10628 10624 10619 10613 10606 10599 10594 10586 10579 10573 10566 10557 10549 10541 10533 10524 10516 10508 10501 10493 10485
10651 10653 10654 10657 10658 10659 10660 10662 10664 10663 10661 10659 10656 10653 10651 10647 10642 10638 10632 10628 10623 10620 10616 10611 10605 10599 10592 10585 10579 10571 10565 10556 10548 10540 10530 10521 10512 10503 10493 10484 10474 10465 10457
10646 10648 10650 10652 10653 10653 10653 10652 10653 10653 10652 10649 10649 10645 10640 10636 10631 10626 10622 10618 10613 10607 10603 10597 10591 10584 10577 10569 10561 10553 10547 10539 10529 10519 10509 10500 10490 10479 10470 10459 10448 10439 10429
10638 10640 10642 10645 10645 10645 10645 10644 10642 10643 10641 10643 10638 10634 10628 10623 10618 10614 10611 10606 10600 10595 10588 10582 10576 10568 10561 10553 10545 10535 10529 10520 10511 10500 10488 10477 10467 10455 10444 10432 10422 10412 10402
10630 10632 10633 10633 10634 10635 10635 10634 10631 10629 10628 10626 10623 10621 10616 10612 10607 10603 10599 10593 10589 10582 10576 10569 10562 10554 10545 10535 10528 10518 10507 10497 10489 10482 10469 10454 10442 10429 10417 10406 10396 10385 10372
10621 10622 10623 10623 10622 10623 10624 10622 10618 10616 10614 10612 10611 10608 10605 10601 10596 10591 10587 10582 10576 10570 10563 10554 10546 10539 10530 10519 10509 10500 10489 10479 10467 10457 10446 10433 10420 10405 10393 10382 10367 10355 10342
10612 10613 10612 10614 10613 10613 10613 10611 10607 10605 10603 10601 10598 10596 10593 10589 10586 10582 10577 10570 10564 10556 10548 10538 10529 10521 10512 10502 10491 10481 10470 10459 10447 10435 10425 10413 10399 10382 10368 10354 10340 10327 10312